This demonstration page uses our WeatherBlox Daily Observations layout. Learn more.

Left ArrowRight Arrow

47.50024, -111.30081

Hourly Observations for May 31, 2017

Temp ( °F °C ) Dew Point ( °F °C ) Humidity (%) Winds ( mph kmh ) Pressure ( in mb ) Visibility ( mi km ) Precip ( " mm )
12:53 am 00:53 Clear 61 16.1 43 6.1 52 52 S 10 17 29.84 1011 10 16 0.00 0.00
1:53 am 01:53 Clear 61 16.1 43 6.1 52 52 SSE 10 17 29.82 1010 10 16 0.00 0.00
2:53 am 02:53 Clear 54 12.2 43 6.1 67 67 VRB 3 6 29.83 1010 10 16 0.00 0.00
3:53 am 03:53 Clear 53 11.7 43 6.1 69 69 ESE 3 6 29.82 1010 10 16 0.00 0.00
4:53 am 04:53 Clear 54 12.2 43 6.1 67 67 S 8 13 29.81 1010 10 16 0.00 0.00
5:53 am 05:53 Sunny 58 14.4 42 5.6 56 56 S 5 7 29.80 1009 10 16 0.00 0.00
6:53 am 06:53 Sunny 59 15 44 6.7 58 58 Calm 29.80 1009 10 16 0.00 0.00
7:53 am 07:53 Sunny 64 17.8 45 7.2 50 50 VRB 3 6 29.78 1008 10 16 0.00 0.00
8:53 am 08:53 Sunny 66 18.9 47 8.3 50 50 ESE 5 7 29.78 1009 10 16 0.00 0.00
9:53 am 09:53 Sunny 71 21.7 46 7.8 41 41 SE 5 7 29.77 1008 10 16 0.00 0.00
10:53 am 10:53 Sunny 74 23.3 48 8.9 40 40 SE 9 15 29.76 1008 10 16 0.00 0.00
11:53 am 11:53 Sunny 78 25.6 51 10.6 39 39 VRB 7 11 29.75 1007 10 16 0.00 0.00
12:53 pm 12:53 Sunny 81 27.2 49 9.4 33 33 SSE 10 17 29.72 1006 10 16 0.00 0.00
1:53 pm 13:53 Sunny 82 27.8 50 10 33 33 VRB 6 9 29.70 1006 10 16 0.00 0.00
2:53 pm 14:53 Sunny 84 28.9 50 10 31 31 ESE 8 13 29.69 1006 10 16 0.00 0.00
3:53 pm 15:53 Sunny 85 29.4 45 7.2 25 25 ESE 9 15 29.67 1005 10 16 0.00 0.00
4:53 pm 16:53 Sunny 83 28.3 46 7.8 27 27 ESE 7 11 29.66 1005 10 16 0.00 0.00
5:26 pm 17:26 Sunny with Nearby Thunderstorms 80 26.7 41 5 25 25 S 16 26 29.47 998 10 16 0.00 0.00
5:37 pm 17:37 Partly Cloudy with Thunderstorms 79 26.1 39 3.9 24 24 SSW 21 33 29.47 998 10 16 0.00 0.00
5:53 pm 17:53 Partly Cloudy with Nearby Thunderstorms 78 25.6 42 5.6 28 28 SW 12 19 29.66 1005 10 16 0.00 0.00
6:35 pm 18:35 Sunny 77 25 42 5.6 29 29 S 15 24 29.50 999 10 16 0.00 0.00
6:53 pm 18:53 Sunny 76 24.4 45 7.2 33 33 SE 12 19 29.67 1005 10 16 0.00 0.00
7:53 pm 19:53 Sunny 75 23.9 42 5.6 31 31 S 15 24 29.68 1005 10 16 0.00 0.00
8:53 pm 20:53 Sunny 69 20.6 45 7.2 42 42 SE 15 24 29.68 1005 10 16 0.00 0.00
9:53 pm 21:53 Clear 68 20 44 6.7 42 42 ESE 10 17 29.69 1005 10 16 0.00 0.00
10:53 pm 22:53 Partly Cloudy 66 18.9 43 6.1 43 43 SSW 7 11 29.69 1005 10 16 0.00 0.00
11:53 pm 23:53 Clear 66 18.9 43 6.1 43 43 SW 14 22 29.70 1006 10 16 0.00 0.00

Powered by AerisWeather